Location: Riverton
(43.0250°N, 108.3790°W)
Time: 15:17:57
(UTC-06:00)

FO-29 - Visible Passes

Search period start: 17 August 2017 00:00
Search period end: 27 August 2017 00:00
Orbit: 800 x 1321 km, 98.6° (Epoch: 16 August)

Date Brightness Start Highest point End Pass type
(mag) Time Alt. Az. Time Alt. Az. Time Alt. Az.
17 Aug 11.6 00:24:45 10° NNW 00:28:35 18° WNW 00:31:37 12° W visible
17 Aug 10.3 21:44:15 10° NE 21:48:40 23° E 21:49:13 23° E visible
17 Aug 10.1 23:28:37 10° N 23:34:10 47° WNW 23:35:41 37° WSW visible
18 Aug 9.1 22:33:28 10° NNE 22:39:09 62° E 22:39:45 58° SE visible
19 Aug 11.4 00:19:43 10° NNW 00:23:37 19° WNW 00:26:13 14° W visible
19 Aug 10.4 21:39:27 10° NE 21:43:34 21° E 21:43:49 21° E visible
19 Aug 9.9 23:23:38 10° N 23:29:08 50° WNW 23:30:17 43° WSW visible
20 Aug 9.2 22:28:32 10° NNE 22:34:05 57° E 22:34:21 56° ESE visible
21 Aug 11.3 00:14:39 10° NNW 00:18:39 20° WNW 00:20:49 16° W visible
21 Aug 10.6 21:34:41 10° NE 21:38:25 19° E 21:38:25 19° E visible
21 Aug 9.7 23:18:39 10° N 23:24:06 54° WNW 23:24:53 49° WSW visible
22 Aug 9.3 22:23:36 10° NNE 22:28:57 52° E 22:28:57 52° E visible
23 Aug 11.2 00:09:35 10° NNW 00:13:40 21° WNW 00:15:25 18° W visible
23 Aug 10.7 21:29:54 10° NE 21:33:00 17° E 21:33:00 17° E visible
23 Aug 9.5 23:13:38 10° N 23:19:04 58° WNW 23:19:29 56° W visible
24 Aug 9.4 22:18:39 10° NNE 22:23:32 46° E 22:23:32 46° E visible
25 Aug 11.1 00:04:30 10° NNW 00:08:40 23° WNW 00:10:00 21° W visible
25 Aug 10.8 21:25:10 10° NE 21:27:36 15° E 21:27:36 15° E visible
25 Aug 9.4 23:08:38 10° N 23:14:01 63° WNW 23:14:04 63° WNW visible
26 Aug 9.6 22:13:42 10° NNE 22:18:07 41° ENE 22:18:07 41° ENE visible
